Вернуться в каталог

STARLINK-31141

АктивенСвязьVLEO
NORAD 58803·PAYLOAD·🇺🇸 United States

Запущен Jan 15, 2024 с Cape Canaveral Space Force Station

Loading…

Ближайшие Пролёты (ближайшие 24 часа)

TLE

СвежийSource: CelesTrak SupGP

Эпоха: Sep 14, 2026, 13:36 UTC

1 58803C 24012S   26257.56715278 -.00000553  00000+0 -20048-4 0  2575
2 58803  43.0008 178.7568 0001423 266.1519 325.6307 15.27569570    17

Отслеживайте STARLINK-31141 в реальном времени с AllMySat

Download on the App Store